Powrót do katalogu

STARLINK-36572

AktywnyŁącznośćSSO
NORAD 67536·PAYLOAD·🇺🇸 United States

Wystrzelony Jan 22, 2026 z Vandenberg Space Force Base

Loading…

Następne Przeloty (najbliższe 24 godziny)

TLE

ŚwieżeSource: CelesTrak SupGP

Epoka: Sep 14, 2026, 21:16 UTC

1 67536C 26014E   26257.88659722 -.00025197  00000+0 -78257-3 0  2573
2 67536  97.2845 143.2966 0001936  95.6919 341.9818 15.33434813    13

Śledź STARLINK-36572 w czasie rzeczywistym z AllMySat

Download on the App Store